Back to catalog

COSMOS 252 DEB

AliveUNKNOWN
NORAD 3788·DEBRIS·🇷🇺 Russia

Launched Nov 1, 1968 from Baikonur Cosmodrome

Loading…

Next Passes (next 24 hours)

TLE

FreshSource: Space-Track

Epoch: Sep 14, 2026, 12:52 UTC

1 03788U 68097BA  26257.53654203 -.00000040  00000-0  21237-3 0  9999
2 03788  61.8729 290.1156 0581349  40.8014  33.1157 11.88459683511046

Track COSMOS 252 DEB in real time with AllMySat

Download on the App Store